Regional Weather Roundup
Issued by NWS State College, PA

Home | Current Version | Previous Version | Text Only | Print | Product List | Glossary On
Versions: 1 2 3 4 5 6 7 8 9 10 11 12 13 14 15 16 17 18 19 20 21 22 23 24 25 26 27 28 29 30 31 32 33 34 35 36 37 38 39 40 41 42 43 44 45 46 47 48 49 50
000
ASUS41 KCTP 290503
RWRCTP

REGIONAL WEATHER ROUNDUP
NATIONAL WEATHER SERVICE STATE COLLEGE PA
100 AM EDT SUN MAY 29 2016

Note: "fair" indicates few or no clouds below 12,000 feet with no
significant weather and/or obstructions to visibility.

* = STATION THAT DOES NOT REPORT PRECIPITATION /E.G. RAIN...SNOW...ETC/
    THUNDER OR FOG.

PAZ002>004-007>009-013>016-020>023-029>032-290600-
WESTERN PENNSYLVANIA

CITY           SKY/WX    TMP DP  RH WIND       PRES   REMARKS
ERIE           PTCLDY    73  66  78 S7        30.09S
MEADVILLE      CLOUDY    67  66  97 CALM      30.13S
FRANKLIN*      CLOUDY    64  61  88 CALM      30.16S
NEW CASTLE     FAIR      67  64  90 E3        30.12S
BEAVER COUNTY  NOT AVBL
BUTLER*        CLEAR     72  64  78 CALM      30.16R
PITTSBURGH INT PTCLDY    74  65  73 CALM      30.12R
PITTSBURGH     MOCLDY    71  62  73 SE6       30.12S
INDIANA*       CLOUDY    68  68 100 CALM      30.17S
LATROBE        CLEAR     66  66 100 CALM      30.14S
WASHINGTON CO* CLEAR     66  64  94 CALM      30.13F
$$

PAZ004>006-010>012-017>019-024>028-033>037-041-042-045-046-049>053-290600-
CENTRAL PENNSYLVANIA

CITY           SKY/WX    TMP DP  RH WIND       PRES   REMARKS
BRADFORD       MOCLDY    63  61  93 CALM      30.17S
DUBOIS         CLOUDY    70  65  84 W3        30.15S
CLEARFIELD     CLOUDY    68  63  84 N3        30.15S
JOHNSTOWN      CLEAR     69  61  75 S7        30.18S
ALTOONA        CLEAR     74  61  63 CALM      30.16S
STATE COLLEGE  CLOUDY    75  64  70 SW5       30.14S
WILLIAMSPORT   PTCLDY    71  67  87 CALM      30.10S
SELINSGROVE    CLEAR     71  67  87 NW3       30.12S
FT INDIANTOWN  NOT AVBL
CAPITAL CITY   CLEAR     75  63  66 SE7       30.13S
HARRISBURG     CLEAR     73  63  70 VRB5      30.13R
YORK           PTCLDY    72  63  73 CALM      30.14S
$$

PAZ038>040-043-044-047-048-054-055-060>062-067>071-290600-
EASTERN PENNSYLVANIA

CITY           SKY/WX    TMP DP  RH WIND       PRES   REMARKS
SCRANTON       CLEAR     74  67  78 CALM      30.14S
MOUNT POCONO   PTCLDY    68  63  84 W7        30.19S
ALLENTOWN      CLEAR     71  63  75 SW5       30.14R
QUAKERTOWN*    CLEAR     72  66  83 SW5       30.16S
READING        MOCLDY    75  59  57 SW6       30.13S
LANCASTER      PTCLDY    72  57  59 CALM      30.15S
COATESVILLE    CLOUDY    72  52  49 VRB5      30.18S
POTTSTOWN      CLOUDY    72  64  76 CALM      30.16S
BLUE BELL      PTCLDY    72  59  64 SW3       30.14F
DOYLESTOWN     CLEAR     72  62  71 S3        30.14S
WILLOW GROVE   NOT AVBL
NORTH PHILA    PTCLDY    74  59  59 S3        30.16S
PHILADELPHIA   CLOUDY    70  59  68 S6        30.15S
$$



USA.gov is the U.S. government's official web portal to all federal, state and local government web resources and services.